VK5ZSH Weather Reports


time (UTC)temp
F
wind
direction
speed
knots
gust
knots
rain 1hr
in
rain 24hr
in
rain mn
in
humidity
%
barometer
mb
20260504222520 54 0.0 0.0 0.00 0.00 0.00 96
20260504221525 54 0.0 0.0 0.00 0.00 0.00 96
20260504220521 54 0.0 0.0 0.00 0.00 0.00 96
20260504215526 54 0.0 0.0 0.00 0.00 0.00 96
20260504214522 54 0.0 0.0 0.00 0.00 0.00 96
20260504213519 53 0.0 0.0 0.00 0.00 0.00 95
20260504212524 53 0.0 0.0 0.00 0.00 0.00 95
20260504211520 53 0.0 0.0 0.00 0.00 0.00 95
20260504210525 53 0.0 0.0 0.00 0.00 0.00 95
20260504205521 53 0.0 0.0 0.00 0.00 0.00 95
20260504204526 53 0.0 0.0 0.00 0.00 0.00 95
20260504203522 53 0.0 0.0 0.00 0.00 0.00 95
20260504202518 53 0.0 0.0 0.00 0.00 0.00 95
20260504201523 53 0.0 0.0 0.00 0.00 0.00 95
20260504200520 53 0.0 0.0 0.00 0.00 0.00 95
20260504195525 53 0.0 0.0 0.00 0.00 0.00 95
20260504194521 52 0.0 0.0 0.00 0.00 0.00 94
20260504193526 53 0.0 0.0 0.00 0.00 0.00 94
20260504192522 53 0.0 0.0 0.00 0.00 0.00 94
20260504191527 53 0.0 0.0 0.00 0.00 0.00 94
20260504190523 54 0.0 0.0 0.00 0.00 0.00 94
20260504185519 54 0.0 0.0 0.00 0.00 0.00 94
20260504184524 54 0.0 0.0 0.00 0.00 0.00 94
20260504183521 54 0.0 0.0 0.00 0.00 0.00 94
20260504182526 55 0.0 0.0 0.00 0.00 0.00 94
20260504181522 55 0.0 0.0 0.00 0.00 0.00 94
20260504180527 54 0.0 0.0 0.00 0.00 0.00 94
20260504175523 54 0.0 0.0 0.00 0.00 0.00 94
20260504174519 54 0.0 0.0 0.00 0.00 0.00 94
20260504173524 54 0.0 0.0 0.00 0.00 0.00 94
20260504172521 54 0.0 0.0 0.00 0.00 0.00 94
20260504171526 54 0.0 0.0 0.00 0.00 0.00 94
20260504170522 54 0.0 0.0 0.00 0.00 0.00 94
20260504150520 53 0.0 0.0 0.00 0.00 0.00 93
20260504140524 55 0.0 0.0 0.00 0.00 0.00 91
20260504130519 57 0.0 0.0 0.00 0.00 0.00 90
20260504110527 57 0.0 0.0 0.00 0.00 0.00 80
20260504100522 59 0.0 0.0 0.00 0.00 0.00 76
20260504081524 60 0.0 0.0 0.00 0.00 0.00 78
20260504080520 61 0.0 0.0 0.00 0.00 0.00 77
20260504050523 65 0.0 0.0 0.00 0.00 0.00 59
20260504045519 65 0.0 0.0 0.00 0.00 0.00 63
20260504044524 65 0.0 0.0 0.00 0.00 0.00 62
20260504043520 65 0.0 0.0 0.00 0.00 0.00 63
20260504042525 65 0.0 0.0 0.00 0.00 0.00 64
20260504041521 64 0.0 0.0 0.00 0.00 0.00 65
20260504040526 64 0.0 0.0 0.00 0.00 0.00 63
20260504035523 65 0.0 0.0 0.00 0.00 0.00 61
20260504034519 64 0.0 0.0 0.00 0.00 0.00 64
20260504033524 65 0.0 0.0 0.00 0.00 0.00 62
20260504032520 66 0.0 0.0 0.00 0.00 0.00 62
20260504031525 65 0.0 0.0 0.00 0.00 0.00 65
20260504030522 66 0.0 0.0 0.00 0.00 0.00 64
20260504025527 64 0.0 0.0 0.00 0.00 0.00 69
20260504024523 64 0.0 0.0 0.00 0.00 0.00 71
20260504023519 64 0.0 0.0 0.00 0.00 0.00 75
20260504022524 62 0.0 0.0 0.00 0.00 0.00 79
20260504021520 61 0.0 0.0 0.00 0.00 0.00 81
20260504020525 63 0.0 0.0 0.00 0.00 0.00 77
20260504015522 63 0.0 0.0 0.00 0.00 0.00 74
20260504014527 64 0.0 0.0 0.00 0.00 0.00 73
20260504013523 63 0.0 0.0 0.00 0.00 0.00 73
20260504012519 63 0.0 0.0 0.00 0.00 0.00 76
20260504011524 62 0.0 0.0 0.00 0.00 0.00 77
20260504010520 62 0.0 0.0 0.00 0.00 0.00 77
20260504005525 62 0.0 0.0 0.00 0.00 0.00 77
20260504004522 62 0.0 0.0 0.00 0.00 0.00 77
20260504003526 62 0.0 0.0 0.00 0.00 0.00 79
20260504002523 63 0.0 0.0 0.00 0.00 0.00 78
20260504001519 62 0.0 0.0 0.00 0.00 0.00 82
20260504000524 61 0.0 0.0 0.00 0.00 0.00 84
20260503235520 60 0.0 0.0 0.00 0.00 0.00 87
20260503234525 59 0.0 0.0 0.00 0.00 0.00 92
20260503233521 58 0.0 0.0 0.00 0.00 0.00 95
20260503232526 58 0.0 0.0 0.00 0.00 0.00 95
20260503231522 58 0.0 0.0 0.00 0.00 0.00 95
20260503230519 57 0.0 0.0 0.00 0.00 0.00 95
20260503225524 57 0.0 0.0 0.00 0.00 0.00 95
20260503224520 56 0.0 0.0 0.00 0.00 0.00 95
20260503223525 56 0.0 0.0 0.00 0.00 0.00 95